Terug naar catalogus

KUIPER-00075

ActiefCommunicatieVLEO
NORAD 64822·PAYLOAD·🇺🇸 United States

Gelanceerd Jul 16, 2025 vanaf Cape Canaveral Space Force Station

Loading…

Volgende Passages (komende 24 uur)

TLE

VersSource: CelesTrak SupGP

Epoch: Sep 14, 2026, 19:46 UTC

1 64822C 25151G   26257.82396991  .00010826  00000+0  27769-3 0  2572
2 64822  51.8658  19.4906 0002791 216.7905 358.1671 15.38725034    15

Volg KUIPER-00075 in realtime met AllMySat

Download on the App Store